Regional Weather Roundup
Issued by NWS

Home | Current Version | Previous Version | Text Only | Print | Product List | Glossary On
Versions: 1 2 3 4 5 6 7 8 9 10 11 12 13 14 15 16 17 18 19 20 21 22 23 24 25 26 27 28 29 30 31 32 33 34 35 36 37 38 39 40 41 42 43 44 45 46 47 48 49 50
000
ASUS44 KJAN 240510
RWRMS

MISSISSIPPI HOURLY WEATHER ROUNDUP
NATIONAL WEATHER SERVICE JACKSON MS
1200 AM CDT THU JUL 24 2014

NOTE: "FAIR: INDICATES FEW OR NO CLOUDS BELOW 12,000 FEET WITH NO
SIGNIFICANT WEATHER AND/OR OBSTRUCTIONS TO VISIBILITY.

MSZ001>002-007>008-010>013-018>021-025>028-034>036-240600-
NORTHWEST MISSISSIPPI

CITY           SKY/WX    TMP DP  RH WIND       PRES   REMARKS
CLARKSDALE     CLOUDY    73  73 100 NE6       30.02S
CLEVELAND      FAIR      72  72 100 N7        30.01S
GREENWOOD      PTCLDY    71  69  93 SE3       30.00S
GREENVILLE     MOCLDY    74  71  91 N7        30.00S
GRENADA        FAIR      72  70  94 CALM      30.01S
OLIVE BRANCH   CLEAR     70 N/A N/A CALM      30.03F
OXFORD         FAIR      70  68  94 NE5       30.04F
TUNICA         CLEAR     70  68  94 NE9       30.03S
$$

MSZ003>006-009-014>017-022>024-029>033-037>039-240600-
NORTHEAST MISSISSIPPI

CITY           SKY/WX    TMP DP  RH WIND       PRES   REMARKS
BELMONT        FAIR      71  71  98 CALM      30.02F
COLUMBUS AFB   PTCLDY    72  71  96 CALM      30.01R
CORINTH        FAIR      72  68  88 CALM      30.02F
GOLDN TRIANGLE PTCLDY    72  66  83 N6        30.01S
STARKVILLE     FAIR      70  68  94 CALM      30.01R
TUPELO         CLOUDY    76  70  82 N6        30.01S
$$

MSZ040-058-240600-
CENTRAL MISSISSIPPI

CITY           SKY/WX    TMP DP  RH WIND       PRES   REMARKS
JACKSON INTL   PTCLDY    73  71  93 CALM      29.99R
JACKSON HAWKNS PTCLDY    73  68  84 CALM      30.00R
MERIDIAN KEY   PTCLDY    74  71  91 CALM      30.01R
MERIDIAN NAS   CLEAR     73  70  90 NW5       30.01R
RAYMOND        MOCLDY    72  66  83 CALM      30.00R
VICKSBURG      PTCLDY    74  70  87 N5        29.99S
$$

MSZ059>079-240600-
SOUTH MISSISSIPPI

CITY           SKY/WX    TMP DP  RH WIND       PRES   REMARKS
BROOKHAVEN     FAIR      73  72  94 CALM      30.01F
COLUMBIA       FAIR      73  73 100 CALM      29.99F FOG
HATTIESBURG    CLEAR     76  73  91 S6        30.00F
MCCOMB         CLEAR     76  72  87 CALM      30.00F
NATCHEZ        PTCLDY    73  70  88 CALM      30.00F
PINE BELT      CLEAR     75  72  88 SW5       30.01F
$$

MSZ080>082-240600-
COASTAL MISSISSIPPI

CITY           SKY/WX    TMP DP  RH WIND       PRES   REMARKS
BILOXI         CLEAR     76  72  86 CALM      30.00F
PASCAGOULA     CLEAR     72  71  97 CALM      30.01F FOG
GULFPORT       CLEAR     78  72  81 CALM      30.00F
$$



USA.gov is the U.S. government's official web portal to all federal, state and local government web resources and services.